Flag for U.S.A. Weather past 2 weeks in Scottsdale, Arizona, U.S.A.

Now
72 °F

Sunny.


Feels Like: 74 °F
Forecast: 45 / 72 °F
Wind: 3 mph from North

Location: Scottsdale Airport

Current Time: Feb 27, 2015 at 2:59:55 PM

Latest Report: Feb 27, 2015 at 1:53 PM


Visibility: 10 mi

Pressure: 29.65 "Hg

Humidity: 17%

Dew point: 25 °F

Location of ScottsdaleLocation

Historic Weather in Scottsdale — Graph

°F

Scottsdale temperature yesterday

Maximum temperature yesterday: 73 °F (at 4:53 PM)
Minimum temperature yesterday: 50 °F (at 3:53 AM)
Average temperature yesterday: 61 °F

Past Weeks' High & Low Weather Summary

 TemperatureHumidityPressure
High82 °F (Feb 14, 2:53 PM)86% (Feb 24, 1:53 AM)30.18 "Hg (Feb 24, 1:53 AM)
Low45 °F (Feb 25, 5:53 AM)8% (Feb 17, 3:53 PM)29.69 "Hg (Feb 27, 12:53 PM)
Average63 °F39%29.95 "Hg
* Reported Feb 12 12:53 PM — Feb 27 12:53 PM, Scottsdale, Weather by CustomWeather, © 2015

Note: Actual official high and low records may vary slightly from our data, if they occured in-between our weather recording intervals... More about our weather records

Advertising

Scottsdale weather history for previous 24 hours

 ConditionsComfort  
Time TempWeatherWind HumidityBarometerVisibility
12:53 PM
Fri, Feb 27
70 °FSunny.6 mph18%29.69 "Hg10 mi
11:53 AM69 °FSunny.5 mph19%29.71 "Hg10 mi
10:53 AM66 °FSunny.9 mph22%29.74 "Hg10 mi
9:53 AM64 °FSunny.7 mph23%29.74 "Hg10 mi
8:53 AM60 °FSunny.3 mph31%29.75 "Hg10 mi
7:53 AM53 °FSunny.No wind41%29.75 "Hg10 mi
6:53 AM50 °FClear.No wind50%29.73 "Hg10 mi
5:53 AM50 °FClear.No wind48%29.72 "Hg10 mi
4:53 AM49 °FClear.No wind52%29.71 "Hg10 mi
3:53 AM50 °FClear.No wind50%29.72 "Hg10 mi
2:53 AM50 °FClear.No wind50%29.73 "Hg10 mi
1:53 AM52 °FClear.No wind45%29.74 "Hg10 mi
12:53 AM54 °FClear.No wind41%29.74 "Hg10 mi
11:53 PM
Thu, Feb 26
58 °FClear.No wind32%29.74 "Hg10 mi
10:53 PM58 °FClear.No wind32%29.74 "Hg10 mi
9:53 PM62 °FClear.No wind25%29.74 "Hg10 mi
8:53 PM62 °FClear.No wind26%29.73 "Hg10 mi
7:53 PM66 °FClear.No wind21%29.74 "Hg10 mi
6:53 PM69 °FClear.No wind17%29.73 "Hg10 mi
5:53 PM72 °FSunny.5 mph14%29.73 "Hg10 mi
4:53 PM73 °FSunny.6 mph14%29.73 "Hg10 mi
3:53 PM72 °FSunny.No wind16%29.74 "Hg10 mi
2:53 PM71 °FSunny.5 mph17%29.76 "Hg10 mi
Weather by CustomWeather, © 2015

See weather overviewHow to use our weather pages